Location: Franzen
(48.6167°N, 15.3833°E)
Time: 12:14:39
(UTC+00:00)

SL-4 R/B - Pass Details

Date: 22 April 2021
Orbit: 427 x 663 km, 51.6° (Epoch: 16 May)

Event Time Altitude Azimuth Distance (km) Brightness Sun altitude
Rises 21:25:44 0° 265° (W) 2,845 5.9 -25.6°
Reaches altitude 10° 21:28:00 10° 269° (W) 1,976 5.1 -25.8°
Maximum altitude 21:32:32 64° 351° (N) 713 2.7 -26.1°
Enters shadow 21:33:35 49° 46° (NE) 837 2.9 -26.2°
